Center for Professional Development & Training
CPDT sessions are restricted to UNF faculty, staff and OPS employees, including student assistants.

Below are current open training sessions. Restricted or full sessions are not listed. Contact training@unf.edu for additional information.

Directions:
Register for classes by checking the appropriate box next to each class and selecting the Enrollment Form button.
For a description of the classes, check the appropriate box next to each class and select the Information button.
Current semester: Spring 2019
Start Date Start Time Stop Time Class Location Trainer Seats Taken /
Capacity
03-27-2019 9:00AM 11:00AM CMS Training: Beginner (ITS-118) 53/1400 Thompson, Katherine 1 / 15
03-27-2019 10:00AM 11:30AM HR Policies and Procedures (HR-150) 1/1306 Harrison, Kelly 8 / 15
03-27-2019 10:30AM 12:00PM Banner 9 Administrative Pages (ITS-400) 12/4301 Lee, Angela 7 / 12
03-28-2019 9:00AM 11:00AM OASys Position Management Training (HR-200) 12/4301 Michael Fritts 3 / 12
03-28-2019 2:30PM 4:30PM OASys Applicant Tracking (HR-201) 53/1400 Jackson, Ricarla 3 / 24
03-29-2019 9:00AM 11:00AM Redefining the Customer Experience. (PDT-671) 1/1306 Harrison, Kelly 10 / 15
03-29-2019 2:00PM 3:00PM Statement of Ethical Conduct Workshop (CMP-111) 51/3201 Campbell, Joann 2 / 25
04-01-2019 10:00AM 11:00AM OspreyImpact Training (PDT-253) 12/4301 Sipes, Justin 0 / 12
04-02-2019 2:00PM 3:00PM Website Accessibility (ITS-127) 53/1400 Thompson, Katherine 1 / 15
04-03-2019 9:00AM 11:00AM Finance Self Service (BGT-100) 12/4301 Byrd, Erin 1 / 12
04-04-2019 10:00AM 12:00PM CCP in Worldview Identity (SA-146) 58E/2100 Hartley, Robert 0 / 15
04-04-2019 10:30AM 12:00PM Savvy Social Security Planning (HR-170) 1/1306 Janice Del Toro 0 / 15
04-04-2019 2:00PM 4:00PM Concur Made Easy: Travel Requests, Booking, and Expenses (CON-302) 53/1400 Lee, Angela 8 / 24
04-08-2019 3:00PM 4:00PM Statement of Ethical Conduct Workshop (CMP-111) 53/Tampa conf room Campbell, Joann 12 / 25
04-09-2019 3:00PM 4:30PM Awarding Scholarships for Student Travel (AA-100) 1/1306 Lee, Angela 1 / 15
04-10-2019 9:00AM 12:30PM Safe Space: Cultural Competency in LGBTQ Identities (SA-133) 58E/2100 Kaitlin Legg 9 / 15
04-10-2019 9:00AM 11:00AM CMS Training: Beginner (ITS-118) 53/1400 Thompson, Katherine 0 / 15
04-10-2019 10:30AM 12:00PM Managing Health Care Expenses in Retirement, What you Need to Know about Medicare and Long Term Care (HR-180) 1/1306 Janice Del Toro 0 / 15
04-10-2019 2:00PM 4:00PM iContracts (CON-108) 53/1400 Lee, Angela 2 / 24
04-11-2019 9:00AM 10:30AM CMS: Redesign Workshop (ITS-150) 53/1400 Thompson, Katherine 2 / 15
04-11-2019 2:00PM 3:30PM Accepting Credit Card Payments: Payment Card Industry Data Security Standards Compliance (PCI DSS) (PUR-113) 53/1400 Lee, Angela 8 / 24
04-12-2019 9:00AM 4:00PM Access 2016 - Level II (ITS-253) 53/1400 Doug Leas 0 / 24
04-16-2019 10:00AM 12:00PM Procurement 101 (PUR-120) 53/1400 Dickey, Eric 4 / 12
04-16-2019 1:00PM 3:00PM Originating an ePAF (HR-126) 12/4301 Levine, Stefanie 5 / 12
04-17-2019 11:00AM 12:00PM Book Club (PDT-602) 1/1306 Harrison, Kelly 11 / 15
04-17-2019 3:00PM 4:30PM Information for Search and Screen Committee Members & Title IX Briefing (EOD-143) 1/1306 Haft, Katie 3 / 15
04-23-2019 10:00AM 11:00AM Website Accessibility (ITS-127) 53/1400 Thompson, Katherine 1 / 15
04-23-2019 1:30PM 4:30PM Direct Pay & Elec. Invoice Approval (CON-102) 53/1400 Lee, Angela 2 / 24
04-24-2019 9:00AM 11:00AM CMS Training: Beginner (ITS-118) 53/1400 Thompson, Katherine 0 / 15
04-24-2019 1:30PM 4:30PM P-Card Concur Training (PUR-210) 12/4301 Durden, Denise 3 / 12
04-25-2019 9:00AM 11:00AM OASys Applicant Tracking (HR-201) 53/1400 Levine, Stefanie 1 / 24
04-25-2019 2:00PM 3:30PM Banner 9 Administrative Pages (ITS-400) 53/1400 Lee, Angela 1 / 12
04-25-2019 2:30PM 4:30PM OASys Position Management Training (HR-200) 12/4301 Jackson, Ricarla 0 / 12
04-30-2019 9:00AM 10:00AM Statement of Ethical Conduct Workshop (CMP-111) 57/1100A Campbell, Joann 9 / 25
04-30-2019 1:30PM 4:00PM Competency in Race and Ethnicity (SA-135) 58E/2100 Lewin, Cody 7 / 15
05-02-2019 2:00PM 3:00PM Quillix Capture 5 (ITS-131) 12/4301 Lee, Angela 1 / 12
05-02-2019 3:00PM 4:00PM OnBase Web Client Training (ITS-113) 12/4301 Lee, Angela 2 / 12
05-03-2019 1:30PM 3:30PM Finance Self Service (BGT-100) 53/1400 Byrd, Erin 1 / 24
05-07-2019 9:00AM 11:00AM CCP Capstone in Equity, Diversity, & Inclusion (SA-147) 58E/2100 Winfrey, Brandi 5 / 15